Location: Deurze
(52.9838°N, 6.6090°E)
Time: 18:29:53
(UTC+00:00)

SL-24 DEB - Pass Details

Date: 11 March 2026
Orbit: 632 x 657 km, 92.0° (Epoch: 20 April)

Event Time Altitude Azimuth Distance (km) Brightness Sun altitude
Rises 18:43:50 0° 7° (N) 2,982 7.6 -11.8°
Reaches altitude 10° 18:46:05 10° 11° (N) 2,070 6.8 -12.2°
Maximum altitude 18:50:36 62° 91° (E) 743 4.2 -12.8°
Drops below altitude 10° 18:55:06 10° 173° (S) 2,066 6.5 -13.5°
Sets 18:57:21 0° 177° (S) 2,974 7.4 -13.8°
